Location: Unspecified
(0.0000°N, 0.0000°E)
Time: 07:38:41
(UTC+00:00)

Vanguard 2 Rocket - Pass Details

Date: 06 October 2023
Orbit: 552 x 3312 km, 32.9° (Epoch: 06 December)

Event Time Altitude Azimuth Distance (km) Brightness Sun altitude
Rises 16:58:32 0° 302° (WNW) 7,245 12.4 12.3°
Reaches altitude 10° 17:03:42 10° 301° (WNW) 6,083 12.1 11.1°
Maximum altitude 17:21:56 74° 218° (SW) 2,403 9.3 6.5°
Drops below altitude 10° 17:32:43 10° 133° (SE) 3,817 9.7 3.8°
Sets 17:35:13 0° 131° (SE) 4,510 10.0 3.2°
